Location: Mahannah Oil Field
(37.4664°N, 96.6003°W)
Time: 05:59:30
(UTC+00:00)

Courier 1B Rocket - Pass Details

Date: 29 January 2021
Orbit: 920 x 1202 km, 28.3° (Epoch: 05 March)

Event Time Altitude Azimuth Distance (km) Brightness Sun altitude
Exits shadow 09:48:00 12° 124° (SE) 2,528 7.5 -44.5°
Drops below altitude 10° 09:48:42 10° 118° (ESE) 2,673 7.7 -44.3°
Sets 09:52:25 0° 99° (E) 3,668 8.7 -43.6°
